sat.trackr.live / text

‹ back to catalog

2024-110B

NORAD 60013 · 2024-110B

PAYLOAD ACTIVE UNKNOWN

§ Identity

Operator
Country
PRC
Launch date
2024-06-06
Launch site
JSC
Launch vehicle
Mass (kg)
RCS (m²)

External: N2YO · Heavens-Above · Gunter

§ Orbital elements

Epoch: 2026-05-25T05:25:26.230656Z

Period
94.61 min
Inclination
97.5711°
Eccentricity
0.0010017
Mean motion
15.22099053 rev/d
Perigee alt
492.6 km
Apogee alt
506.4 km
Semi-major
6,877.6 km
B*
3.0428e-4
RAAN
241.0177°
Arg perigee
336.8535°
Mean anomaly
23.2248°
Rev number
10,869

§ Raw data

2024-110B1 60013U 24110B   26145.22599804  .00006905  00000+0  30428-3 0  99942 60013  97.5711 241.0177 0010017 336.8535  23.2248 15.22099053108697

JSON: /api/v1/satellites/60013 · /tle

For live sub-satellite position, see the globe view (requires WebGL).

§ Visibility from observer

Set your observer location to see the next 7 days of passes ≥ 10°. The values pass through the URL so the page stays shareable.

No JS? Fill the form by hand. The geolocation button needs JavaScript.

§ Radio — SatNOGS DB

ModeDescriptionDownlinkUplink
FM Mode U - Transmitter 401.950 MHz

1 transmitter · refreshed weekly from db.satnogs.org